<?xml version="1.0" encoding="UTF-8" standalone="no" ?>
<gpx xmlns="http://www.topografix.com/GPX/1/1" xmlns:xsi="http://www.w3.org/2001/XMLSchema-instance" xsi:schemaLocation="http://www.topografix.com/GPX/1/1 http://www.topografix.com/GPX/1/1/gpx.xsd" version="1.1" creator="VisuGPX - https://www.visugpx.com">
  <metadata>
    <name>Leernes</name>
  </metadata>
  <wpt lat="50.39188" lon="4.33383">
    <ele>162.4453125</ele>
    <name><![CDATA[01 vicinal]]></name>
    <type><![CDATA[user]]></type>
  </wpt>
  <wpt lat="50.3924" lon="4.33451">
    <ele>162.859375</ele>
    <name><![CDATA[02 cimetière]]></name>
    <desc><![CDATA[Rue de Marchienne 23
Fontaine-l'Évêque, Hainaut, BEL]]></desc>
    <cmt><![CDATA[Rue de Marchienne 23
Fontaine-l'Évêque, Hainaut, BEL]]></cmt>
    <type><![CDATA[user]]></type>
  </wpt>
  <wpt lat="50.39089" lon="4.33594">
    <ele>156.3125</ele>
    <name><![CDATA[03 place]]></name>
    <type><![CDATA[user]]></type>
  </wpt>
  <trk>
    <name><![CDATA[Fontaine-l'Évêque Course]]></name>
    <trkseg>
      <trkpt lat="50.39178" lon="4.33375">
        <ele>161.99019773841</ele>
        <time>2021-04-29T13:24:09Z</time>
      </trkpt>
      <trkpt lat="50.39182" lon="4.33371">
        <ele>161.83832083437</ele>
        <time>2021-04-29T13:24:09Z</time>
      </trkpt>
      <trkpt lat="50.39188" lon="4.33369">
        <ele>161.65874276493</ele>
        <time>2021-04-29T13:24:09Z</time>
      </trkpt>
      <trkpt lat="50.39207" lon="4.33364">
        <ele>161.47255417458</ele>
        <time>2021-04-29T13:24:09Z</time>
      </trkpt>
      <trkpt lat="50.39211" lon="4.3336">
        <ele>161.22305440628</ele>
        <time>2021-04-29T13:24:09Z</time>
      </trkpt>
      <trkpt lat="50.39211" lon="4.33357">
        <ele>160.91100810006</ele>
        <time>2021-04-29T13:24:09Z</time>
      </trkpt>
      <trkpt lat="50.39195" lon="4.33293">
        <ele>160.31916515568</ele>
        <time>2021-04-29T13:24:09Z</time>
      </trkpt>
      <trkpt lat="50.39184" lon="4.33273">
        <ele>159.80727816381</ele>
        <time>2021-04-29T13:24:09Z</time>
      </trkpt>
      <trkpt lat="50.3917" lon="4.3323">
        <ele>159.31713871928</ele>
        <time>2021-04-29T13:24:09Z</time>
      </trkpt>
      <trkpt lat="50.39164" lon="4.33196">
        <ele>158.77012327093</ele>
        <time>2021-04-29T13:24:09Z</time>
      </trkpt>
      <trkpt lat="50.39157" lon="4.33173">
        <ele>158.24935617283</ele>
        <time>2021-04-29T13:24:09Z</time>
      </trkpt>
      <trkpt lat="50.39154" lon="4.33134">
        <ele>157.68051782902</ele>
        <time>2021-04-29T13:24:09Z</time>
      </trkpt>
      <trkpt lat="50.39143" lon="4.33068">
        <ele>157.04437603959</ele>
        <time>2021-04-29T13:24:09Z</time>
      </trkpt>
      <trkpt lat="50.39136" lon="4.33042">
        <ele>156.53183753316</ele>
        <time>2021-04-29T13:24:09Z</time>
      </trkpt>
      <trkpt lat="50.39081" lon="4.32784">
        <ele>156.07142859246</ele>
        <time>2021-04-29T13:24:09Z</time>
      </trkpt>
      <trkpt lat="50.3905" lon="4.3265">
        <ele>155.76712557921</ele>
        <time>2021-04-29T13:24:09Z</time>
      </trkpt>
      <trkpt lat="50.39048" lon="4.32621">
        <ele>155.4306460205</ele>
        <time>2021-04-29T13:24:10Z</time>
      </trkpt>
      <trkpt lat="50.39052" lon="4.32571">
        <ele>155.13432021212</ele>
        <time>2021-04-29T13:24:10Z</time>
      </trkpt>
      <trkpt lat="50.39057" lon="4.32538">
        <ele>154.87034349869</ele>
        <time>2021-04-29T13:24:10Z</time>
      </trkpt>
      <trkpt lat="50.39064" lon="4.32458">
        <ele>154.51189142178</ele>
        <time>2021-04-29T13:24:10Z</time>
      </trkpt>
      <trkpt lat="50.3907" lon="4.32392">
        <ele>154.2459088117</ele>
        <time>2021-04-29T13:24:11Z</time>
      </trkpt>
      <trkpt lat="50.39078" lon="4.32339">
        <ele>153.96574204404</ele>
        <time>2021-04-29T13:24:11Z</time>
      </trkpt>
      <trkpt lat="50.39089" lon="4.32313">
        <ele>153.74873997659</ele>
        <time>2021-04-29T13:24:11Z</time>
      </trkpt>
      <trkpt lat="50.39105" lon="4.32291">
        <ele>153.63712521064</ele>
        <time>2021-04-29T13:24:11Z</time>
      </trkpt>
      <trkpt lat="50.39114" lon="4.32274">
        <ele>153.53525879879</ele>
        <time>2021-04-29T13:24:12Z</time>
      </trkpt>
      <trkpt lat="50.39129" lon="4.3225">
        <ele>153.50648483578</ele>
        <time>2021-04-29T13:24:12Z</time>
      </trkpt>
      <trkpt lat="50.39167" lon="4.32196">
        <ele>153.49190250397</ele>
        <time>2021-04-29T13:24:12Z</time>
      </trkpt>
      <trkpt lat="50.39186" lon="4.32166">
        <ele>153.39456410832</ele>
        <time>2021-04-29T13:24:13Z</time>
      </trkpt>
      <trkpt lat="50.3921" lon="4.32107">
        <ele>153.30176619754</ele>
        <time>2021-04-29T13:24:13Z</time>
      </trkpt>
      <trkpt lat="50.39225" lon="4.32052">
        <ele>153.13677125836</ele>
        <time>2021-04-29T13:24:13Z</time>
      </trkpt>
      <trkpt lat="50.39227" lon="4.32037">
        <ele>153.04149567383</ele>
        <time>2021-04-29T13:24:14Z</time>
      </trkpt>
      <trkpt lat="50.39227" lon="4.32024">
        <ele>152.97043525785</ele>
        <time>2021-04-29T13:24:14Z</time>
      </trkpt>
      <trkpt lat="50.39222" lon="4.31997">
        <ele>152.9267195788</ele>
        <time>2021-04-29T13:24:14Z</time>
      </trkpt>
      <trkpt lat="50.39222" lon="4.3198">
        <ele>152.89911924073</ele>
        <time>2021-04-29T13:24:15Z</time>
      </trkpt>
      <trkpt lat="50.39227" lon="4.31943">
        <ele>152.87599937272</ele>
        <time>2021-04-29T13:24:15Z</time>
      </trkpt>
      <trkpt lat="50.39231" lon="4.31924">
        <ele>152.89717066079</ele>
        <time>2021-04-29T13:24:16Z</time>
      </trkpt>
      <trkpt lat="50.39237" lon="4.31855">
        <ele>152.95946187991</ele>
        <time>2021-04-29T13:24:16Z</time>
      </trkpt>
      <trkpt lat="50.39235" lon="4.3183">
        <ele>153.18426605714</ele>
        <time>2021-04-29T13:24:16Z</time>
      </trkpt>
      <trkpt lat="50.39231" lon="4.31814">
        <ele>153.46215903428</ele>
        <time>2021-04-29T13:24:17Z</time>
      </trkpt>
      <trkpt lat="50.39228" lon="4.31782">
        <ele>153.84858225674</ele>
        <time>2021-04-29T13:24:17Z</time>
      </trkpt>
      <trkpt lat="50.39228" lon="4.31761">
        <ele>154.24475018154</ele>
        <time>2021-04-29T13:24:18Z</time>
      </trkpt>
      <trkpt lat="50.39233" lon="4.31712">
        <ele>154.72048964419</ele>
        <time>2021-04-29T13:24:18Z</time>
      </trkpt>
      <trkpt lat="50.39229" lon="4.31679">
        <ele>155.29031710509</ele>
        <time>2021-04-29T13:24:19Z</time>
      </trkpt>
      <trkpt lat="50.39224" lon="4.31669">
        <ele>155.85469587464</ele>
        <time>2021-04-29T13:24:19Z</time>
      </trkpt>
      <trkpt lat="50.39212" lon="4.31656">
        <ele>156.47584116401</ele>
        <time>2021-04-29T13:24:19Z</time>
      </trkpt>
      <trkpt lat="50.39194" lon="4.3164">
        <ele>157.16362839152</ele>
        <time>2021-04-29T13:24:20Z</time>
      </trkpt>
      <trkpt lat="50.39178" lon="4.31629">
        <ele>157.88111282197</ele>
        <time>2021-04-29T13:24:20Z</time>
      </trkpt>
      <trkpt lat="50.39153" lon="4.31605">
        <ele>158.67992684858</ele>
        <time>2021-04-29T13:24:21Z</time>
      </trkpt>
      <trkpt lat="50.39122" lon="4.31568">
        <ele>159.57113881851</ele>
        <time>2021-04-29T13:24:21Z</time>
      </trkpt>
      <trkpt lat="50.39104" lon="4.31541">
        <ele>160.45259318515</ele>
        <time>2021-04-29T13:24:22Z</time>
      </trkpt>
      <trkpt lat="50.39096" lon="4.31533">
        <ele>161.29310373158</ele>
        <time>2021-04-29T13:24:22Z</time>
      </trkpt>
      <trkpt lat="50.39049" lon="4.31477">
        <ele>162.26953765595</ele>
        <time>2021-04-29T13:24:23Z</time>
      </trkpt>
      <trkpt lat="50.39027" lon="4.31444">
        <ele>163.18645015538</ele>
        <time>2021-04-29T13:24:24Z</time>
      </trkpt>
      <trkpt lat="50.39004" lon="4.31402">
        <ele>164.05520533426</ele>
        <time>2021-04-29T13:24:24Z</time>
      </trkpt>
      <trkpt lat="50.38983" lon="4.31373">
        <ele>164.93988933674</ele>
        <time>2021-04-29T13:24:25Z</time>
      </trkpt>
      <trkpt lat="50.38979" lon="4.31365">
        <ele>165.80804245051</ele>
        <time>2021-04-29T13:24:25Z</time>
      </trkpt>
      <trkpt lat="50.38955" lon="4.31326">
        <ele>166.76209121495</ele>
        <time>2021-04-29T13:24:26Z</time>
      </trkpt>
      <trkpt lat="50.38954" lon="4.31321">
        <ele>167.65168112527</ele>
        <time>2021-04-29T13:24:26Z</time>
      </trkpt>
      <trkpt lat="50.38947" lon="4.31305">
        <ele>168.59526465456</ele>
        <time>2021-04-29T13:24:27Z</time>
      </trkpt>
      <trkpt lat="50.38925" lon="4.3128">
        <ele>169.61157797193</ele>
        <time>2021-04-29T13:24:28Z</time>
      </trkpt>
      <trkpt lat="50.3891" lon="4.31258">
        <ele>170.60148728961</ele>
        <time>2021-04-29T13:24:28Z</time>
      </trkpt>
      <trkpt lat="50.38901" lon="4.31249">
        <ele>171.5788564521</ele>
        <time>2021-04-29T13:24:29Z</time>
      </trkpt>
      <trkpt lat="50.38876" lon="4.31216">
        <ele>172.64009439751</ele>
        <time>2021-04-29T13:24:29Z</time>
      </trkpt>
      <trkpt lat="50.38867" lon="4.31209">
        <ele>173.64713254664</ele>
        <time>2021-04-29T13:24:30Z</time>
      </trkpt>
      <trkpt lat="50.38847" lon="4.31184">
        <ele>174.7247445826</ele>
        <time>2021-04-29T13:24:31Z</time>
      </trkpt>
      <trkpt lat="50.38801" lon="4.31121">
        <ele>175.96264141914</ele>
        <time>2021-04-29T13:24:31Z</time>
      </trkpt>
      <trkpt lat="50.38776" lon="4.31095">
        <ele>177.05794089406</ele>
        <time>2021-04-29T13:24:32Z</time>
      </trkpt>
      <trkpt lat="50.38748" lon="4.31053">
        <ele>179.14936910907</ele>
        <time>2021-04-29T13:24:33Z</time>
      </trkpt>
      <trkpt lat="50.38724" lon="4.31024">
        <ele>180.20735748557</ele>
        <time>2021-04-29T13:24:33Z</time>
      </trkpt>
      <trkpt lat="50.38681" lon="4.30961">
        <ele>181.27235973817</ele>
        <time>2021-04-29T13:24:34Z</time>
      </trkpt>
      <trkpt lat="50.3866" lon="4.30937">
        <ele>182.23503765513</ele>
        <time>2021-04-29T13:24:35Z</time>
      </trkpt>
      <trkpt lat="50.38651" lon="4.30924">
        <ele>183.1522578788</ele>
        <time>2021-04-29T13:24:36Z</time>
      </trkpt>
      <trkpt lat="50.38635" lon="4.30909">
        <ele>184.05427833282</ele>
        <time>2021-04-29T13:24:36Z</time>
      </trkpt>
      <trkpt lat="50.38627" lon="4.30897">
        <ele>184.92999605611</ele>
        <time>2021-04-29T13:24:37Z</time>
      </trkpt>
      <trkpt lat="50.38589" lon="4.30852">
        <ele>185.83681119821</ele>
        <time>2021-04-29T13:24:38Z</time>
      </trkpt>
      <trkpt lat="50.3857" lon="4.30826">
        <ele>186.73433365463</ele>
        <time>2021-04-29T13:24:39Z</time>
      </trkpt>
      <trkpt lat="50.38549" lon="4.30801">
        <ele>187.61225806519</ele>
        <time>2021-04-29T13:24:39Z</time>
      </trkpt>
      <trkpt lat="50.38524" lon="4.30772">
        <ele>188.54180851792</ele>
        <time>2021-04-29T13:24:40Z</time>
      </trkpt>
      <trkpt lat="50.385" lon="4.3075">
        <ele>189.4659931885</ele>
        <time>2021-04-29T13:24:41Z</time>
      </trkpt>
      <trkpt lat="50.38491" lon="4.30735">
        <ele>190.28339905618</ele>
        <time>2021-04-29T13:24:42Z</time>
      </trkpt>
      <trkpt lat="50.38487" lon="4.30724">
        <ele>191.02581010995</ele>
        <time>2021-04-29T13:24:43Z</time>
      </trkpt>
      <trkpt lat="50.38488" lon="4.30713">
        <ele>191.6830600097</ele>
        <time>2021-04-29T13:24:44Z</time>
      </trkpt>
      <trkpt lat="50.38491" lon="4.30697">
        <ele>192.25937384557</ele>
        <time>2021-04-29T13:24:44Z</time>
      </trkpt>
      <trkpt lat="50.38529" lon="4.30633">
        <ele>192.79672218628</ele>
        <time>2021-04-29T13:24:45Z</time>
      </trkpt>
      <trkpt lat="50.38551" lon="4.30572">
        <ele>193.4583468154</ele>
        <time>2021-04-29T13:24:46Z</time>
      </trkpt>
      <trkpt lat="50.38565" lon="4.3054">
        <ele>194.01997336995</ele>
        <time>2021-04-29T13:24:47Z</time>
      </trkpt>
      <trkpt lat="50.38578" lon="4.30517">
        <ele>194.44506802637</ele>
        <time>2021-04-29T13:24:48Z</time>
      </trkpt>
      <trkpt lat="50.38584" lon="4.30498">
        <ele>194.786218941</ele>
        <time>2021-04-29T13:24:49Z</time>
      </trkpt>
      <trkpt lat="50.38598" lon="4.30469">
        <ele>195.08359823336</ele>
        <time>2021-04-29T13:24:50Z</time>
      </trkpt>
      <trkpt lat="50.38604" lon="4.3045">
        <ele>195.3631498597</ele>
        <time>2021-04-29T13:24:50Z</time>
      </trkpt>
      <trkpt lat="50.38612" lon="4.30434">
        <ele>195.63982670292</ele>
        <time>2021-04-29T13:24:51Z</time>
      </trkpt>
      <trkpt lat="50.38635" lon="4.30378">
        <ele>195.85139113506</ele>
        <time>2021-04-29T13:24:52Z</time>
      </trkpt>
      <trkpt lat="50.38656" lon="4.30334">
        <ele>196.14038560324</ele>
        <time>2021-04-29T13:24:53Z</time>
      </trkpt>
      <trkpt lat="50.38663" lon="4.30313">
        <ele>196.44616154231</ele>
        <time>2021-04-29T13:24:54Z</time>
      </trkpt>
      <trkpt lat="50.38695" lon="4.30235">
        <ele>196.77849695066</ele>
        <time>2021-04-29T13:24:55Z</time>
      </trkpt>
      <trkpt lat="50.38708" lon="4.30213">
        <ele>197.10180307466</ele>
        <time>2021-04-29T13:24:56Z</time>
      </trkpt>
      <trkpt lat="50.3872" lon="4.3018">
        <ele>197.47248667174</ele>
        <time>2021-04-29T13:24:57Z</time>
      </trkpt>
      <trkpt lat="50.38735" lon="4.30153">
        <ele>197.87487364855</ele>
        <time>2021-04-29T13:24:58Z</time>
      </trkpt>
      <trkpt lat="50.38747" lon="4.30123">
        <ele>198.30502626638</ele>
        <time>2021-04-29T13:24:59Z</time>
      </trkpt>
      <trkpt lat="50.38752" lon="4.30113">
        <ele>198.72007022441</ele>
        <time>2021-04-29T13:25:00Z</time>
      </trkpt>
      <trkpt lat="50.38787" lon="4.30025">
        <ele>199.18851705804</ele>
        <time>2021-04-29T13:25:01Z</time>
      </trkpt>
      <trkpt lat="50.38792" lon="4.30008">
        <ele>199.66688489195</ele>
        <time>2021-04-29T13:25:02Z</time>
      </trkpt>
      <trkpt lat="50.38802" lon="4.29992">
        <ele>200.14054944705</ele>
        <time>2021-04-29T13:25:03Z</time>
      </trkpt>
      <trkpt lat="50.38804" lon="4.29983">
        <ele>200.55623241334</ele>
        <time>2021-04-29T13:25:04Z</time>
      </trkpt>
      <trkpt lat="50.38814" lon="4.29964">
        <ele>200.9729171818</ele>
        <time>2021-04-29T13:25:05Z</time>
      </trkpt>
      <trkpt lat="50.38823" lon="4.29948">
        <ele>201.30477643496</ele>
        <time>2021-04-29T13:25:06Z</time>
      </trkpt>
      <trkpt lat="50.38874" lon="4.29823">
        <ele>201.82329363261</ele>
        <time>2021-04-29T13:25:07Z</time>
      </trkpt>
      <trkpt lat="50.38885" lon="4.29802">
        <ele>202.04048168047</ele>
        <time>2021-04-29T13:25:08Z</time>
      </trkpt>
      <trkpt lat="50.38896" lon="4.29771">
        <ele>202.18254032818</ele>
        <time>2021-04-29T13:25:09Z</time>
      </trkpt>
      <trkpt lat="50.38908" lon="4.29746">
        <ele>202.23765652851</ele>
        <time>2021-04-29T13:25:11Z</time>
      </trkpt>
      <trkpt lat="50.38922" lon="4.29702">
        <ele>202.19727246058</ele>
        <time>2021-04-29T13:25:12Z</time>
      </trkpt>
      <trkpt lat="50.38936" lon="4.29682">
        <ele>201.99329211793</ele>
        <time>2021-04-29T13:25:13Z</time>
      </trkpt>
      <trkpt lat="50.38943" lon="4.29668">
        <ele>201.76110176031</ele>
        <time>2021-04-29T13:25:14Z</time>
      </trkpt>
      <trkpt lat="50.38955" lon="4.2965">
        <ele>201.43992664279</ele>
        <time>2021-04-29T13:25:15Z</time>
      </trkpt>
      <trkpt lat="50.38963" lon="4.29632">
        <ele>201.12058501548</ele>
        <time>2021-04-29T13:25:16Z</time>
      </trkpt>
      <trkpt lat="50.38982" lon="4.29578">
        <ele>200.71094666663</ele>
        <time>2021-04-29T13:25:17Z</time>
      </trkpt>
      <trkpt lat="50.38982" lon="4.29566">
        <ele>200.49684733496</ele>
        <time>2021-04-29T13:25:18Z</time>
      </trkpt>
      <trkpt lat="50.38979" lon="4.2955">
        <ele>200.32756459941</ele>
        <time>2021-04-29T13:25:20Z</time>
      </trkpt>
      <trkpt lat="50.3897" lon="4.29523">
        <ele>200.19641705854</ele>
        <time>2021-04-29T13:25:21Z</time>
      </trkpt>
      <trkpt lat="50.38956" lon="4.29466">
        <ele>200.02496366442</ele>
        <time>2021-04-29T13:25:22Z</time>
      </trkpt>
      <trkpt lat="50.38952" lon="4.2946">
        <ele>200.08485012167</ele>
        <time>2021-04-29T13:25:23Z</time>
      </trkpt>
      <trkpt lat="50.38929" lon="4.29463">
        <ele>200.31944999613</ele>
        <time>2021-04-29T13:25:24Z</time>
      </trkpt>
      <trkpt lat="50.3891" lon="4.2947">
        <ele>200.61884474414</ele>
        <time>2021-04-29T13:25:26Z</time>
      </trkpt>
      <trkpt lat="50.38898" lon="4.29477">
        <ele>201.00349057837</ele>
        <time>2021-04-29T13:25:27Z</time>
      </trkpt>
      <trkpt lat="50.38876" lon="4.29482">
        <ele>201.48114242561</ele>
        <time>2021-04-29T13:25:28Z</time>
      </trkpt>
      <trkpt lat="50.38835" lon="4.29498">
        <ele>201.97626160334</ele>
        <time>2021-04-29T13:25:29Z</time>
      </trkpt>
      <trkpt lat="50.38824" lon="4.295">
        <ele>202.27032402384</ele>
        <time>2021-04-29T13:25:30Z</time>
      </trkpt>
      <trkpt lat="50.38806" lon="4.29509">
        <ele>202.56517458363</ele>
        <time>2021-04-29T13:25:32Z</time>
      </trkpt>
      <trkpt lat="50.3879" lon="4.29512">
        <ele>202.76894148184</ele>
        <time>2021-04-29T13:25:33Z</time>
      </trkpt>
      <trkpt lat="50.38782" lon="4.29516">
        <ele>202.90524414164</ele>
        <time>2021-04-29T13:25:34Z</time>
      </trkpt>
      <trkpt lat="50.38728" lon="4.29532">
        <ele>202.80760263664</ele>
        <time>2021-04-29T13:25:35Z</time>
      </trkpt>
      <trkpt lat="50.38676" lon="4.29553">
        <ele>202.71923653247</ele>
        <time>2021-04-29T13:25:37Z</time>
      </trkpt>
      <trkpt lat="50.38663" lon="4.29556">
        <ele>202.599839522</ele>
        <time>2021-04-29T13:25:38Z</time>
      </trkpt>
      <trkpt lat="50.38645" lon="4.29569">
        <ele>202.39365057303</ele>
        <time>2021-04-29T13:25:39Z</time>
      </trkpt>
      <trkpt lat="50.3862" lon="4.29581">
        <ele>202.08839379085</ele>
        <time>2021-04-29T13:25:41Z</time>
      </trkpt>
      <trkpt lat="50.38612" lon="4.29587">
        <ele>201.69770831838</ele>
        <time>2021-04-29T13:25:42Z</time>
      </trkpt>
      <trkpt lat="50.38595" lon="4.29596">
        <ele>201.2054134048</ele>
        <time>2021-04-29T13:25:43Z</time>
      </trkpt>
      <trkpt lat="50.38577" lon="4.29603">
        <ele>200.61403004797</ele>
        <time>2021-04-29T13:25:45Z</time>
      </trkpt>
      <trkpt lat="50.3856" lon="4.29614">
        <ele>199.93500956474</ele>
        <time>2021-04-29T13:25:46Z</time>
      </trkpt>
      <trkpt lat="50.38538" lon="4.29621">
        <ele>199.14093887438</ele>
        <time>2021-04-29T13:25:47Z</time>
      </trkpt>
      <trkpt lat="50.38507" lon="4.29638">
        <ele>198.22477546701</ele>
        <time>2021-04-29T13:25:49Z</time>
      </trkpt>
      <trkpt lat="50.38477" lon="4.29648">
        <ele>197.23131892755</ele>
        <time>2021-04-29T13:25:50Z</time>
      </trkpt>
      <trkpt lat="50.38454" lon="4.29658">
        <ele>195.20345988824</ele>
        <time>2021-04-29T13:25:51Z</time>
      </trkpt>
      <trkpt lat="50.38424" lon="4.29676">
        <ele>193.99709527876</ele>
        <time>2021-04-29T13:25:53Z</time>
      </trkpt>
      <trkpt lat="50.38407" lon="4.2968">
        <ele>192.84622849158</ele>
        <time>2021-04-29T13:25:54Z</time>
      </trkpt>
      <trkpt lat="50.38393" lon="4.2968">
        <ele>191.75942861545</ele>
        <time>2021-04-29T13:25:55Z</time>
      </trkpt>
      <trkpt lat="50.3835" lon="4.29671">
        <ele>190.65535503877</ele>
        <time>2021-04-29T13:25:57Z</time>
      </trkpt>
      <trkpt lat="50.38308" lon="4.29665">
        <ele>189.59279277969</ele>
        <time>2021-04-29T13:25:58Z</time>
      </trkpt>
      <trkpt lat="50.38292" lon="4.29671">
        <ele>188.73090708383</ele>
        <time>2021-04-29T13:26:00Z</time>
      </trkpt>
      <trkpt lat="50.38282" lon="4.29672">
        <ele>188.03767136931</ele>
        <time>2021-04-29T13:26:01Z</time>
      </trkpt>
      <trkpt lat="50.38278" lon="4.29667">
        <ele>187.52092625238</ele>
        <time>2021-04-29T13:26:03Z</time>
      </trkpt>
      <trkpt lat="50.38274" lon="4.29645">
        <ele>187.20291131918</ele>
        <time>2021-04-29T13:26:04Z</time>
      </trkpt>
      <trkpt lat="50.3827" lon="4.29598">
        <ele>187.03773998588</ele>
        <time>2021-04-29T13:26:06Z</time>
      </trkpt>
      <trkpt lat="50.38269" lon="4.2957">
        <ele>186.86098345769</ele>
        <time>2021-04-29T13:26:07Z</time>
      </trkpt>
      <trkpt lat="50.38272" lon="4.29549">
        <ele>186.79385661883</ele>
        <time>2021-04-29T13:26:09Z</time>
      </trkpt>
      <trkpt lat="50.38278" lon="4.2953">
        <ele>186.77040539609</ele>
        <time>2021-04-29T13:26:10Z</time>
      </trkpt>
      <trkpt lat="50.38296" lon="4.2949">
        <ele>186.75458796847</ele>
        <time>2021-04-29T13:26:11Z</time>
      </trkpt>
      <trkpt lat="50.38298" lon="4.29479">
        <ele>186.61422245167</ele>
        <time>2021-04-29T13:26:13Z</time>
      </trkpt>
      <trkpt lat="50.38297" lon="4.29477">
        <ele>186.44693232966</ele>
        <time>2021-04-29T13:26:14Z</time>
      </trkpt>
      <trkpt lat="50.38293" lon="4.29476">
        <ele>186.23067304833</ele>
        <time>2021-04-29T13:26:16Z</time>
      </trkpt>
      <trkpt lat="50.38269" lon="4.29484">
        <ele>185.85426490077</ele>
        <time>2021-04-29T13:26:17Z</time>
      </trkpt>
      <trkpt lat="50.38199" lon="4.29493">
        <ele>185.19091058587</ele>
        <time>2021-04-29T13:26:19Z</time>
      </trkpt>
      <trkpt lat="50.38194" lon="4.29495">
        <ele>184.99510455876</ele>
        <time>2021-04-29T13:26:21Z</time>
      </trkpt>
      <trkpt lat="50.38179" lon="4.29512">
        <ele>184.8214906096</ele>
        <time>2021-04-29T13:26:22Z</time>
      </trkpt>
      <trkpt lat="50.38151" lon="4.29531">
        <ele>184.67347118409</ele>
        <time>2021-04-29T13:26:24Z</time>
      </trkpt>
      <trkpt lat="50.38115" lon="4.29544">
        <ele>184.56867434475</ele>
        <time>2021-04-29T13:26:25Z</time>
      </trkpt>
      <trkpt lat="50.38078" lon="4.29549">
        <ele>184.5540777214</ele>
        <time>2021-04-29T13:26:27Z</time>
      </trkpt>
      <trkpt lat="50.38059" lon="4.29554">
        <ele>184.48814430419</ele>
        <time>2021-04-29T13:26:28Z</time>
      </trkpt>
      <trkpt lat="50.38055" lon="4.29557">
        <ele>184.39017461779</ele>
        <time>2021-04-29T13:26:30Z</time>
      </trkpt>
      <trkpt lat="50.3805" lon="4.29564">
        <ele>184.30302878039</ele>
        <time>2021-04-29T13:26:31Z</time>
      </trkpt>
      <trkpt lat="50.38042" lon="4.29568">
        <ele>184.24182452393</ele>
        <time>2021-04-29T13:26:33Z</time>
      </trkpt>
      <trkpt lat="50.38035" lon="4.29575">
        <ele>184.19622469187</ele>
        <time>2021-04-29T13:26:35Z</time>
      </trkpt>
      <trkpt lat="50.3802" lon="4.29602">
        <ele>184.18259195364</ele>
        <time>2021-04-29T13:26:36Z</time>
      </trkpt>
      <trkpt lat="50.38017" lon="4.2961">
        <ele>184.21792730284</ele>
        <time>2021-04-29T13:26:38Z</time>
      </trkpt>
      <trkpt lat="50.38016" lon="4.29619">
        <ele>184.29325824141</ele>
        <time>2021-04-29T13:26:40Z</time>
      </trkpt>
      <trkpt lat="50.38021" lon="4.29641">
        <ele>184.38257418541</ele>
        <time>2021-04-29T13:26:41Z</time>
      </trkpt>
      <trkpt lat="50.38036" lon="4.29676">
        <ele>184.49188925726</ele>
        <time>2021-04-29T13:26:43Z</time>
      </trkpt>
      <trkpt lat="50.38042" lon="4.29708">
        <ele>184.74847899063</ele>
        <time>2021-04-29T13:26:44Z</time>
      </trkpt>
      <trkpt lat="50.38034" lon="4.29733">
        <ele>185.19039841429</ele>
        <time>2021-04-29T13:26:46Z</time>
      </trkpt>
      <trkpt lat="50.38023" lon="4.29745">
        <ele>185.77913566447</ele>
        <time>2021-04-29T13:26:48Z</time>
      </trkpt>
      <trkpt lat="50.38018" lon="4.29748">
        <ele>186.48067614751</ele>
        <time>2021-04-29T13:26:49Z</time>
      </trkpt>
      <trkpt lat="50.38" lon="4.29762">
        <ele>187.38389902756</ele>
        <time>2021-04-29T13:26:51Z</time>
      </trkpt>
      <trkpt lat="50.37974" lon="4.29773">
        <ele>188.44869091145</ele>
        <time>2021-04-29T13:26:53Z</time>
      </trkpt>
      <trkpt lat="50.37956" lon="4.29784">
        <ele>189.55463706878</ele>
        <time>2021-04-29T13:26:54Z</time>
      </trkpt>
      <trkpt lat="50.37944" lon="4.29787">
        <ele>190.69720623632</ele>
        <time>2021-04-29T13:26:56Z</time>
      </trkpt>
      <trkpt lat="50.37936" lon="4.29792">
        <ele>191.8757267638</ele>
        <time>2021-04-29T13:26:58Z</time>
      </trkpt>
      <trkpt lat="50.37904" lon="4.29804">
        <ele>193.24515216861</ele>
        <time>2021-04-29T13:26:59Z</time>
      </trkpt>
      <trkpt lat="50.37881" lon="4.29806">
        <ele>194.63069466107</ele>
        <time>2021-04-29T13:27:01Z</time>
      </trkpt>
      <trkpt lat="50.37855" lon="4.29814">
        <ele>195.89051987656</ele>
        <time>2021-04-29T13:27:03Z</time>
      </trkpt>
      <trkpt lat="50.3784" lon="4.29821">
        <ele>197.08604138423</ele>
        <time>2021-04-29T13:27:04Z</time>
      </trkpt>
      <trkpt lat="50.37795" lon="4.29832">
        <ele>198.32205759719</ele>
        <time>2021-04-29T13:27:06Z</time>
      </trkpt>
      <trkpt lat="50.3778" lon="4.29839">
        <ele>199.37651808989</ele>
        <time>2021-04-29T13:27:08Z</time>
      </trkpt>
      <trkpt lat="50.37724" lon="4.29877">
        <ele>200.26536781195</ele>
        <time>2021-04-29T13:27:10Z</time>
      </trkpt>
      <trkpt lat="50.37712" lon="4.29884">
        <ele>201.11200210879</ele>
        <time>2021-04-29T13:27:11Z</time>
      </trkpt>
      <trkpt lat="50.37688" lon="4.29893">
        <ele>201.9243018416</ele>
        <time>2021-04-29T13:27:13Z</time>
      </trkpt>
      <trkpt lat="50.37652" lon="4.29899">
        <ele>202.67229442466</ele>
        <time>2021-04-29T13:27:15Z</time>
      </trkpt>
      <trkpt lat="50.3765" lon="4.29901">
        <ele>203.24387769863</ele>
        <time>2021-04-29T13:27:17Z</time>
      </trkpt>
      <trkpt lat="50.3765" lon="4.29908">
        <ele>203.71644257022</ele>
        <time>2021-04-29T13:27:19Z</time>
      </trkpt>
      <trkpt lat="50.3766" lon="4.29943">
        <ele>204.10614544908</ele>
        <time>2021-04-29T13:27:20Z</time>
      </trkpt>
      <trkpt lat="50.37669" lon="4.29992">
        <ele>204.41967996287</ele>
        <time>2021-04-29T13:27:22Z</time>
      </trkpt>
      <trkpt lat="50.3767" lon="4.30004">
        <ele>204.58301268725</ele>
        <time>2021-04-29T13:27:24Z</time>
      </trkpt>
      <trkpt lat="50.37684" lon="4.30056">
        <ele>204.58750867428</ele>
        <time>2021-04-29T13:27:26Z</time>
      </trkpt>
      <trkpt lat="50.37688" lon="4.30089">
        <ele>204.46642472095</ele>
        <time>2021-04-29T13:27:28Z</time>
      </trkpt>
      <trkpt lat="50.37687" lon="4.30093">
        <ele>204.32222431423</ele>
        <time>2021-04-29T13:27:30Z</time>
      </trkpt>
      <trkpt lat="50.37682" lon="4.30102">
        <ele>204.10093773086</ele>
        <time>2021-04-29T13:27:31Z</time>
      </trkpt>
      <trkpt lat="50.37633" lon="4.30136">
        <ele>203.87824023674</ele>
        <time>2021-04-29T13:27:33Z</time>
      </trkpt>
      <trkpt lat="50.37597" lon="4.30171">
        <ele>203.43094158865</ele>
        <time>2021-04-29T13:27:35Z</time>
      </trkpt>
      <trkpt lat="50.37581" lon="4.30179">
        <ele>202.98531192591</ele>
        <time>2021-04-29T13:27:37Z</time>
      </trkpt>
      <trkpt lat="50.37573" lon="4.30181">
        <ele>202.51131049588</ele>
        <time>2021-04-29T13:27:39Z</time>
      </trkpt>
      <trkpt lat="50.37549" lon="4.30178">
        <ele>201.99181874074</ele>
        <time>2021-04-29T13:27:41Z</time>
      </trkpt>
      <trkpt lat="50.37535" lon="4.30179">
        <ele>201.43301766478</ele>
        <time>2021-04-29T13:27:43Z</time>
      </trkpt>
      <trkpt lat="50.37491" lon="4.3019">
        <ele>200.78401540653</ele>
        <time>2021-04-29T13:27:45Z</time>
      </trkpt>
      <trkpt lat="50.37456" lon="4.30195">
        <ele>200.15797324159</ele>
        <time>2021-04-29T13:27:47Z</time>
      </trkpt>
      <trkpt lat="50.37433" lon="4.30193">
        <ele>199.57970386597</ele>
        <time>2021-04-29T13:27:48Z</time>
      </trkpt>
      <trkpt lat="50.37415" lon="4.30197">
        <ele>199.01638486548</ele>
        <time>2021-04-29T13:27:50Z</time>
      </trkpt>
      <trkpt lat="50.37401" lon="4.30198">
        <ele>198.47371928308</ele>
        <time>2021-04-29T13:27:52Z</time>
      </trkpt>
      <trkpt lat="50.37375" lon="4.30202">
        <ele>197.9394979147</ele>
        <time>2021-04-29T13:27:54Z</time>
      </trkpt>
      <trkpt lat="50.3734" lon="4.30201">
        <ele>197.36753231195</ele>
        <time>2021-04-29T13:27:56Z</time>
      </trkpt>
      <trkpt lat="50.37301" lon="4.30194">
        <ele>196.81734770886</ele>
        <time>2021-04-29T13:27:58Z</time>
      </trkpt>
      <trkpt lat="50.37283" lon="4.302">
        <ele>196.42779783527</ele>
        <time>2021-04-29T13:28:00Z</time>
      </trkpt>
      <trkpt lat="50.37266" lon="4.30211">
        <ele>196.08827232607</ele>
        <time>2021-04-29T13:28:02Z</time>
      </trkpt>
      <trkpt lat="50.37258" lon="4.30218">
        <ele>195.78273184508</ele>
        <time>2021-04-29T13:28:04Z</time>
      </trkpt>
      <trkpt lat="50.37253" lon="4.30227">
        <ele>195.515130431</ele>
        <time>2021-04-29T13:28:06Z</time>
      </trkpt>
      <trkpt lat="50.37252" lon="4.30234">
        <ele>195.27908875854</ele>
        <time>2021-04-29T13:28:08Z</time>
      </trkpt>
      <trkpt lat="50.37254" lon="4.30241">
        <ele>195.0374000395</ele>
        <time>2021-04-29T13:28:10Z</time>
      </trkpt>
      <trkpt lat="50.37268" lon="4.30272">
        <ele>194.74698466626</ele>
        <time>2021-04-29T13:28:12Z</time>
      </trkpt>
      <trkpt lat="50.37279" lon="4.30304">
        <ele>194.58778596445</ele>
        <time>2021-04-29T13:28:14Z</time>
      </trkpt>
      <trkpt lat="50.37305" lon="4.30353">
        <ele>194.55046703964</ele>
        <time>2021-04-29T13:28:16Z</time>
      </trkpt>
      <trkpt lat="50.37338" lon="4.30423">
        <ele>194.41074147631</ele>
        <time>2021-04-29T13:28:19Z</time>
      </trkpt>
      <trkpt lat="50.37361" lon="4.3051">
        <ele>194.27505374961</ele>
        <time>2021-04-29T13:28:21Z</time>
      </trkpt>
      <trkpt lat="50.3737" lon="4.30554">
        <ele>194.10871769468</ele>
        <time>2021-04-29T13:28:23Z</time>
      </trkpt>
      <trkpt lat="50.37371" lon="4.30573">
        <ele>193.92185337228</ele>
        <time>2021-04-29T13:28:25Z</time>
      </trkpt>
      <trkpt lat="50.37369" lon="4.30602">
        <ele>193.67090932244</ele>
        <time>2021-04-29T13:28:27Z</time>
      </trkpt>
      <trkpt lat="50.3737" lon="4.30615">
        <ele>193.45716549228</ele>
        <time>2021-04-29T13:28:29Z</time>
      </trkpt>
      <trkpt lat="50.37368" lon="4.30629">
        <ele>193.19083486042</ele>
        <time>2021-04-29T13:28:31Z</time>
      </trkpt>
      <trkpt lat="50.37361" lon="4.30656">
        <ele>192.85055220684</ele>
        <time>2021-04-29T13:28:33Z</time>
      </trkpt>
      <trkpt lat="50.37359" lon="4.30695">
        <ele>192.491621108</ele>
        <time>2021-04-29T13:28:35Z</time>
      </trkpt>
      <trkpt lat="50.37355" lon="4.30713">
        <ele>192.15613795309</ele>
        <time>2021-04-29T13:28:38Z</time>
      </trkpt>
      <trkpt lat="50.37356" lon="4.30734">
        <ele>191.82606741993</ele>
        <time>2021-04-29T13:28:40Z</time>
      </trkpt>
      <trkpt lat="50.37359" lon="4.30746">
        <ele>191.49892549565</ele>
        <time>2021-04-29T13:28:42Z</time>
      </trkpt>
      <trkpt lat="50.37355" lon="4.30767">
        <ele>191.12166388682</ele>
        <time>2021-04-29T13:28:44Z</time>
      </trkpt>
      <trkpt lat="50.37354" lon="4.30785">
        <ele>190.74496041684</ele>
        <time>2021-04-29T13:28:46Z</time>
      </trkpt>
      <trkpt lat="50.37356" lon="4.30812">
        <ele>190.34344699425</ele>
        <time>2021-04-29T13:28:48Z</time>
      </trkpt>
      <trkpt lat="50.37364" lon="4.30842">
        <ele>189.94434550496</ele>
        <time>2021-04-29T13:28:51Z</time>
      </trkpt>
      <trkpt lat="50.3737" lon="4.30899">
        <ele>189.48995727875</ele>
        <time>2021-04-29T13:28:53Z</time>
      </trkpt>
      <trkpt lat="50.37377" lon="4.30937">
        <ele>189.03621883489</ele>
        <time>2021-04-29T13:28:55Z</time>
      </trkpt>
      <trkpt lat="50.37376" lon="4.30954">
        <ele>188.54566236678</ele>
        <time>2021-04-29T13:28:57Z</time>
      </trkpt>
      <trkpt lat="50.37382" lon="4.31004">
        <ele>188.04100518542</ele>
        <time>2021-04-29T13:28:59Z</time>
      </trkpt>
      <trkpt lat="50.37383" lon="4.31062">
        <ele>187.4601364011</ele>
        <time>2021-04-29T13:29:02Z</time>
      </trkpt>
      <trkpt lat="50.37389" lon="4.31093">
        <ele>186.89118603779</ele>
        <time>2021-04-29T13:29:04Z</time>
      </trkpt>
      <trkpt lat="50.37391" lon="4.31144">
        <ele>186.29619013941</ele>
        <time>2021-04-29T13:29:06Z</time>
      </trkpt>
      <trkpt lat="50.37399" lon="4.31179">
        <ele>185.72853832045</ele>
        <time>2021-04-29T13:29:08Z</time>
      </trkpt>
      <trkpt lat="50.3741" lon="4.31216">
        <ele>185.2028250705</ele>
        <time>2021-04-29T13:29:11Z</time>
      </trkpt>
      <trkpt lat="50.3741" lon="4.31264">
        <ele>184.65887819302</ele>
        <time>2021-04-29T13:29:13Z</time>
      </trkpt>
      <trkpt lat="50.37418" lon="4.31306">
        <ele>184.18971989473</ele>
        <time>2021-04-29T13:29:15Z</time>
      </trkpt>
      <trkpt lat="50.37421" lon="4.31327">
        <ele>183.74924963011</ele>
        <time>2021-04-29T13:29:17Z</time>
      </trkpt>
      <trkpt lat="50.37421" lon="4.31339">
        <ele>183.31747978267</ele>
        <time>2021-04-29T13:29:20Z</time>
      </trkpt>
      <trkpt lat="50.37426" lon="4.31361">
        <ele>182.91574372685</ele>
        <time>2021-04-29T13:29:22Z</time>
      </trkpt>
      <trkpt lat="50.3743" lon="4.31399">
        <ele>182.56266513035</ele>
        <time>2021-04-29T13:29:24Z</time>
      </trkpt>
      <trkpt lat="50.37437" lon="4.31423">
        <ele>182.26519134801</ele>
        <time>2021-04-29T13:29:27Z</time>
      </trkpt>
      <trkpt lat="50.37454" lon="4.31461">
        <ele>182.01727649633</ele>
        <time>2021-04-29T13:29:29Z</time>
      </trkpt>
      <trkpt lat="50.37463" lon="4.31486">
        <ele>181.83441434449</ele>
        <time>2021-04-29T13:29:31Z</time>
      </trkpt>
      <trkpt lat="50.37474" lon="4.31539">
        <ele>181.60612557337</ele>
        <time>2021-04-29T13:29:34Z</time>
      </trkpt>
      <trkpt lat="50.37484" lon="4.31564">
        <ele>181.38098324539</ele>
        <time>2021-04-29T13:29:36Z</time>
      </trkpt>
      <trkpt lat="50.37488" lon="4.31575">
        <ele>181.21827488193</ele>
        <time>2021-04-29T13:29:38Z</time>
      </trkpt>
      <trkpt lat="50.37501" lon="4.31594">
        <ele>181.08450656629</ele>
        <time>2021-04-29T13:29:41Z</time>
      </trkpt>
      <trkpt lat="50.37506" lon="4.3161">
        <ele>180.96921987333</ele>
        <time>2021-04-29T13:29:43Z</time>
      </trkpt>
      <trkpt lat="50.37526" lon="4.31652">
        <ele>180.91177884916</ele>
        <time>2021-04-29T13:29:45Z</time>
      </trkpt>
      <trkpt lat="50.37532" lon="4.31673">
        <ele>180.88195383834</ele>
        <time>2021-04-29T13:29:48Z</time>
      </trkpt>
      <trkpt lat="50.37536" lon="4.31697">
        <ele>180.83641831792</ele>
        <time>2021-04-29T13:29:50Z</time>
      </trkpt>
      <trkpt lat="50.37546" lon="4.31728">
        <ele>180.92135221664</ele>
        <time>2021-04-29T13:29:53Z</time>
      </trkpt>
      <trkpt lat="50.37551" lon="4.31735">
        <ele>181.0065724093</ele>
        <time>2021-04-29T13:29:55Z</time>
      </trkpt>
      <trkpt lat="50.37555" lon="4.31737">
        <ele>181.1120295444</ele>
        <time>2021-04-29T13:29:57Z</time>
      </trkpt>
      <trkpt lat="50.3757" lon="4.31734">
        <ele>181.27621816477</ele>
        <time>2021-04-29T13:30:00Z</time>
      </trkpt>
      <trkpt lat="50.37581" lon="4.31734">
        <ele>181.42971113528</ele>
        <time>2021-04-29T13:30:02Z</time>
      </trkpt>
      <trkpt lat="50.37592" lon="4.31731">
        <ele>181.58749818555</ele>
        <time>2021-04-29T13:30:05Z</time>
      </trkpt>
      <trkpt lat="50.37599" lon="4.31727">
        <ele>181.72941325512</ele>
        <time>2021-04-29T13:30:07Z</time>
      </trkpt>
      <trkpt lat="50.37606" lon="4.31724">
        <ele>181.86088079544</ele>
        <time>2021-04-29T13:30:10Z</time>
      </trkpt>
      <trkpt lat="50.37612" lon="4.31726">
        <ele>181.97486284242</ele>
        <time>2021-04-29T13:30:12Z</time>
      </trkpt>
      <trkpt lat="50.37618" lon="4.31731">
        <ele>182.06863607643</ele>
        <time>2021-04-29T13:30:14Z</time>
      </trkpt>
      <trkpt lat="50.37625" lon="4.31745">
        <ele>182.14371458489</ele>
        <time>2021-04-29T13:30:17Z</time>
      </trkpt>
      <trkpt lat="50.37653" lon="4.31817">
        <ele>182.17555741584</ele>
        <time>2021-04-29T13:30:19Z</time>
      </trkpt>
      <trkpt lat="50.37662" lon="4.31835">
        <ele>182.20732477055</ele>
        <time>2021-04-29T13:30:22Z</time>
      </trkpt>
      <trkpt lat="50.37681" lon="4.31889">
        <ele>182.22077068666</ele>
        <time>2021-04-29T13:30:24Z</time>
      </trkpt>
      <trkpt lat="50.37689" lon="4.31933">
        <ele>182.25477639399</ele>
        <time>2021-04-29T13:30:27Z</time>
      </trkpt>
      <trkpt lat="50.37702" lon="4.31972">
        <ele>182.30642780777</ele>
        <time>2021-04-29T13:30:29Z</time>
      </trkpt>
      <trkpt lat="50.37712" lon="4.32013">
        <ele>182.35955782842</ele>
        <time>2021-04-29T13:30:32Z</time>
      </trkpt>
      <trkpt lat="50.37715" lon="4.32044">
        <ele>182.42358471205</ele>
        <time>2021-04-29T13:30:34Z</time>
      </trkpt>
      <trkpt lat="50.3772" lon="4.32051">
        <ele>182.56119278845</ele>
        <time>2021-04-29T13:30:37Z</time>
      </trkpt>
      <trkpt lat="50.3774" lon="4.32065">
        <ele>182.77021491252</ele>
        <time>2021-04-29T13:30:39Z</time>
      </trkpt>
      <trkpt lat="50.37751" lon="4.32076">
        <ele>183.00918614393</ele>
        <time>2021-04-29T13:30:42Z</time>
      </trkpt>
      <trkpt lat="50.3776" lon="4.32089">
        <ele>183.29758648003</ele>
        <time>2021-04-29T13:30:44Z</time>
      </trkpt>
      <trkpt lat="50.37761" lon="4.32096">
        <ele>183.63857612738</ele>
        <time>2021-04-29T13:30:47Z</time>
      </trkpt>
      <trkpt lat="50.3776" lon="4.32108">
        <ele>184.03194099869</ele>
        <time>2021-04-29T13:30:49Z</time>
      </trkpt>
      <trkpt lat="50.37757" lon="4.32125">
        <ele>184.48085543006</ele>
        <time>2021-04-29T13:30:52Z</time>
      </trkpt>
      <trkpt lat="50.37732" lon="4.32213">
        <ele>184.85466468225</ele>
        <time>2021-04-29T13:30:55Z</time>
      </trkpt>
      <trkpt lat="50.37706" lon="4.32291">
        <ele>185.45262266217</ele>
        <time>2021-04-29T13:30:57Z</time>
      </trkpt>
      <trkpt lat="50.37683" lon="4.32348">
        <ele>186.26594047319</ele>
        <time>2021-04-29T13:31:00Z</time>
      </trkpt>
      <trkpt lat="50.37678" lon="4.32367">
        <ele>187.06229375315</ele>
        <time>2021-04-29T13:31:02Z</time>
      </trkpt>
      <trkpt lat="50.37675" lon="4.32411">
        <ele>188.04826752843</ele>
        <time>2021-04-29T13:31:05Z</time>
      </trkpt>
      <trkpt lat="50.37675" lon="4.32493">
        <ele>189.0985216983</ele>
        <time>2021-04-29T13:31:08Z</time>
      </trkpt>
      <trkpt lat="50.37662" lon="4.32599">
        <ele>189.9236272633</ele>
        <time>2021-04-29T13:31:10Z</time>
      </trkpt>
      <trkpt lat="50.37658" lon="4.32666">
        <ele>190.65336716195</ele>
        <time>2021-04-29T13:31:13Z</time>
      </trkpt>
      <trkpt lat="50.37654" lon="4.32712">
        <ele>191.23971897925</ele>
        <time>2021-04-29T13:31:16Z</time>
      </trkpt>
      <trkpt lat="50.37648" lon="4.32735">
        <ele>191.66853873001</ele>
        <time>2021-04-29T13:31:18Z</time>
      </trkpt>
      <trkpt lat="50.37645" lon="4.32764">
        <ele>191.97698884801</ele>
        <time>2021-04-29T13:31:21Z</time>
      </trkpt>
      <trkpt lat="50.37645" lon="4.32801">
        <ele>192.13326951583</ele>
        <time>2021-04-29T13:31:24Z</time>
      </trkpt>
      <trkpt lat="50.37642" lon="4.32811">
        <ele>192.14898504203</ele>
        <time>2021-04-29T13:31:26Z</time>
      </trkpt>
      <trkpt lat="50.37641" lon="4.32825">
        <ele>192.00417257484</ele>
        <time>2021-04-29T13:31:29Z</time>
      </trkpt>
      <trkpt lat="50.37634" lon="4.32866">
        <ele>191.69251453333</ele>
        <time>2021-04-29T13:31:32Z</time>
      </trkpt>
      <trkpt lat="50.37631" lon="4.32869">
        <ele>191.2235116565</ele>
        <time>2021-04-29T13:31:35Z</time>
      </trkpt>
      <trkpt lat="50.37623" lon="4.32872">
        <ele>190.52591572553</ele>
        <time>2021-04-29T13:31:37Z</time>
      </trkpt>
      <trkpt lat="50.37608" lon="4.3287">
        <ele>189.62296220606</ele>
        <time>2021-04-29T13:31:40Z</time>
      </trkpt>
      <trkpt lat="50.37591" lon="4.32872">
        <ele>187.50982413078</ele>
        <time>2021-04-29T13:31:43Z</time>
      </trkpt>
      <trkpt lat="50.37582" lon="4.3288">
        <ele>186.27844588336</ele>
        <time>2021-04-29T13:31:46Z</time>
      </trkpt>
      <trkpt lat="50.37566" lon="4.32888">
        <ele>184.91614834087</ele>
        <time>2021-04-29T13:31:48Z</time>
      </trkpt>
      <trkpt lat="50.37553" lon="4.32897">
        <ele>183.52989993014</ele>
        <time>2021-04-29T13:31:51Z</time>
      </trkpt>
      <trkpt lat="50.3753" lon="4.32921">
        <ele>181.8714546061</ele>
        <time>2021-04-29T13:31:54Z</time>
      </trkpt>
      <trkpt lat="50.37514" lon="4.32927">
        <ele>180.35371844895</ele>
        <time>2021-04-29T13:31:57Z</time>
      </trkpt>
      <trkpt lat="50.37507" lon="4.32932">
        <ele>179.00297731389</ele>
        <time>2021-04-29T13:31:59Z</time>
      </trkpt>
      <trkpt lat="50.37495" lon="4.32934">
        <ele>177.62470864739</ele>
        <time>2021-04-29T13:32:02Z</time>
      </trkpt>
      <trkpt lat="50.37489" lon="4.32937">
        <ele>176.39251672991</ele>
        <time>2021-04-29T13:32:05Z</time>
      </trkpt>
      <trkpt lat="50.3748" lon="4.32951">
        <ele>175.31050016228</ele>
        <time>2021-04-29T13:32:08Z</time>
      </trkpt>
      <trkpt lat="50.37473" lon="4.32955">
        <ele>174.27736634469</ele>
        <time>2021-04-29T13:32:11Z</time>
      </trkpt>
      <trkpt lat="50.37447" lon="4.32961">
        <ele>173.27803175287</ele>
        <time>2021-04-29T13:32:13Z</time>
      </trkpt>
      <trkpt lat="50.37431" lon="4.32964">
        <ele>172.44876969531</ele>
        <time>2021-04-29T13:32:16Z</time>
      </trkpt>
      <trkpt lat="50.37413" lon="4.32975">
        <ele>171.86172040426</ele>
        <time>2021-04-29T13:32:19Z</time>
      </trkpt>
      <trkpt lat="50.37399" lon="4.32981">
        <ele>171.57356868252</ele>
        <time>2021-04-29T13:32:22Z</time>
      </trkpt>
      <trkpt lat="50.37392" lon="4.32985">
        <ele>171.52657157321</ele>
        <time>2021-04-29T13:32:25Z</time>
      </trkpt>
      <trkpt lat="50.37384" lon="4.32995">
        <ele>171.74707162446</ele>
        <time>2021-04-29T13:32:28Z</time>
      </trkpt>
      <trkpt lat="50.37376" lon="4.32999">
        <ele>172.04202920501</ele>
        <time>2021-04-29T13:32:30Z</time>
      </trkpt>
      <trkpt lat="50.37344" lon="4.33036">
        <ele>172.75017144721</ele>
        <time>2021-04-29T13:32:33Z</time>
      </trkpt>
      <trkpt lat="50.37324" lon="4.33044">
        <ele>173.2361708174</ele>
        <time>2021-04-29T13:32:36Z</time>
      </trkpt>
      <trkpt lat="50.37314" lon="4.33051">
        <ele>173.99234453211</ele>
        <time>2021-04-29T13:32:39Z</time>
      </trkpt>
      <trkpt lat="50.37311" lon="4.33056">
        <ele>174.97424388188</ele>
        <time>2021-04-29T13:32:42Z</time>
      </trkpt>
      <trkpt lat="50.37314" lon="4.33096">
        <ele>176.30224814944</ele>
        <time>2021-04-29T13:32:45Z</time>
      </trkpt>
      <trkpt lat="50.37331" lon="4.3314">
        <ele>177.77128316818</ele>
        <time>2021-04-29T13:32:48Z</time>
      </trkpt>
      <trkpt lat="50.37337" lon="4.33194">
        <ele>179.34950911068</ele>
        <time>2021-04-29T13:32:50Z</time>
      </trkpt>
      <trkpt lat="50.37348" lon="4.33244">
        <ele>180.79428254496</ele>
        <time>2021-04-29T13:32:53Z</time>
      </trkpt>
      <trkpt lat="50.37355" lon="4.33302">
        <ele>182.20078039787</ele>
        <time>2021-04-29T13:32:56Z</time>
      </trkpt>
      <trkpt lat="50.3736" lon="4.33318">
        <ele>183.48121198433</ele>
        <time>2021-04-29T13:32:59Z</time>
      </trkpt>
      <trkpt lat="50.37371" lon="4.33339">
        <ele>184.73550085653</ele>
        <time>2021-04-29T13:33:02Z</time>
      </trkpt>
      <trkpt lat="50.37369" lon="4.33352">
        <ele>185.84687271339</ele>
        <time>2021-04-29T13:33:05Z</time>
      </trkpt>
      <trkpt lat="50.37363" lon="4.33365">
        <ele>186.83540215215</ele>
        <time>2021-04-29T13:33:08Z</time>
      </trkpt>
      <trkpt lat="50.37362" lon="4.33377">
        <ele>187.67599084355</ele>
        <time>2021-04-29T13:33:11Z</time>
      </trkpt>
      <trkpt lat="50.3737" lon="4.33398">
        <ele>188.40955369442</ele>
        <time>2021-04-29T13:33:14Z</time>
      </trkpt>
      <trkpt lat="50.37373" lon="4.33401">
        <ele>189.15085145432</ele>
        <time>2021-04-29T13:33:17Z</time>
      </trkpt>
      <trkpt lat="50.37385" lon="4.33408">
        <ele>189.85349367662</ele>
        <time>2021-04-29T13:33:20Z</time>
      </trkpt>
      <trkpt lat="50.37394" lon="4.33409">
        <ele>190.51394166364</ele>
        <time>2021-04-29T13:33:23Z</time>
      </trkpt>
      <trkpt lat="50.37405" lon="4.33418">
        <ele>191.0856126201</ele>
        <time>2021-04-29T13:33:26Z</time>
      </trkpt>
      <trkpt lat="50.37429" lon="4.33431">
        <ele>191.66629062581</ele>
        <time>2021-04-29T13:33:29Z</time>
      </trkpt>
      <trkpt lat="50.37441" lon="4.33441">
        <ele>192.10034057345</ele>
        <time>2021-04-29T13:33:32Z</time>
      </trkpt>
      <trkpt lat="50.3745" lon="4.33443">
        <ele>192.5024349128</ele>
        <time>2021-04-29T13:33:35Z</time>
      </trkpt>
      <trkpt lat="50.37466" lon="4.33451">
        <ele>192.85972330015</ele>
        <time>2021-04-29T13:33:38Z</time>
      </trkpt>
      <trkpt lat="50.37496" lon="4.33474">
        <ele>192.98223842944</ele>
        <time>2021-04-29T13:33:41Z</time>
      </trkpt>
      <trkpt lat="50.37516" lon="4.33494">
        <ele>193.07468325633</ele>
        <time>2021-04-29T13:33:44Z</time>
      </trkpt>
      <trkpt lat="50.37522" lon="4.33495">
        <ele>193.21160297562</ele>
        <time>2021-04-29T13:33:47Z</time>
      </trkpt>
      <trkpt lat="50.37534" lon="4.33494">
        <ele>193.32962124683</ele>
        <time>2021-04-29T13:33:50Z</time>
      </trkpt>
      <trkpt lat="50.3754" lon="4.33488">
        <ele>193.4377447682</ele>
        <time>2021-04-29T13:33:53Z</time>
      </trkpt>
      <trkpt lat="50.37543" lon="4.33479">
        <ele>193.53222623145</ele>
        <time>2021-04-29T13:33:56Z</time>
      </trkpt>
      <trkpt lat="50.37547" lon="4.33451">
        <ele>193.67922634055</ele>
        <time>2021-04-29T13:33:59Z</time>
      </trkpt>
      <trkpt lat="50.37554" lon="4.33403">
        <ele>193.87737896211</ele>
        <time>2021-04-29T13:34:02Z</time>
      </trkpt>
      <trkpt lat="50.37556" lon="4.33373">
        <ele>193.95370535762</ele>
        <time>2021-04-29T13:34:05Z</time>
      </trkpt>
      <trkpt lat="50.37581" lon="4.33232">
        <ele>193.59723615652</ele>
        <time>2021-04-29T13:34:08Z</time>
      </trkpt>
      <trkpt lat="50.37585" lon="4.33175">
        <ele>193.43361680477</ele>
        <time>2021-04-29T13:34:11Z</time>
      </trkpt>
      <trkpt lat="50.37589" lon="4.33146">
        <ele>193.2499218036</ele>
        <time>2021-04-29T13:34:14Z</time>
      </trkpt>
      <trkpt lat="50.37595" lon="4.33077">
        <ele>193.03183208093</ele>
        <time>2021-04-29T13:34:17Z</time>
      </trkpt>
      <trkpt lat="50.376" lon="4.32989">
        <ele>192.76991458225</ele>
        <time>2021-04-29T13:34:21Z</time>
      </trkpt>
      <trkpt lat="50.3761" lon="4.3294">
        <ele>192.54855694275</ele>
        <time>2021-04-29T13:34:24Z</time>
      </trkpt>
      <trkpt lat="50.37613" lon="4.32885">
        <ele>192.31579782467</ele>
        <time>2021-04-29T13:34:27Z</time>
      </trkpt>
      <trkpt lat="50.3762" lon="4.32828">
        <ele>192.12033359423</ele>
        <time>2021-04-29T13:34:30Z</time>
      </trkpt>
      <trkpt lat="50.37623" lon="4.32814">
        <ele>191.97202389876</ele>
        <time>2021-04-29T13:34:33Z</time>
      </trkpt>
      <trkpt lat="50.37629" lon="4.32803">
        <ele>191.85529087063</ele>
        <time>2021-04-29T13:34:36Z</time>
      </trkpt>
      <trkpt lat="50.37651" lon="4.3278">
        <ele>191.72680393331</ele>
        <time>2021-04-29T13:34:40Z</time>
      </trkpt>
      <trkpt lat="50.37663" lon="4.32765">
        <ele>191.56793336426</ele>
        <time>2021-04-29T13:34:43Z</time>
      </trkpt>
      <trkpt lat="50.37694" lon="4.32741">
        <ele>191.44386693809</ele>
        <time>2021-04-29T13:34:46Z</time>
      </trkpt>
      <trkpt lat="50.37724" lon="4.32714">
        <ele>191.30542170069</ele>
        <time>2021-04-29T13:34:49Z</time>
      </trkpt>
      <trkpt lat="50.37744" lon="4.327">
        <ele>191.08188394949</ele>
        <time>2021-04-29T13:34:53Z</time>
      </trkpt>
      <trkpt lat="50.37754" lon="4.32689">
        <ele>190.8841331212</ele>
        <time>2021-04-29T13:34:56Z</time>
      </trkpt>
      <trkpt lat="50.37759" lon="4.32688">
        <ele>190.72142826546</ele>
        <time>2021-04-29T13:34:59Z</time>
      </trkpt>
      <trkpt lat="50.37765" lon="4.3269">
        <ele>190.57039745993</ele>
        <time>2021-04-29T13:35:02Z</time>
      </trkpt>
      <trkpt lat="50.37769" lon="4.32695">
        <ele>190.45258098909</ele>
        <time>2021-04-29T13:35:06Z</time>
      </trkpt>
      <trkpt lat="50.37781" lon="4.32719">
        <ele>190.31403798027</ele>
        <time>2021-04-29T13:35:09Z</time>
      </trkpt>
      <trkpt lat="50.3779" lon="4.32755">
        <ele>190.20432360911</ele>
        <time>2021-04-29T13:35:12Z</time>
      </trkpt>
      <trkpt lat="50.37803" lon="4.32786">
        <ele>190.13865382222</ele>
        <time>2021-04-29T13:35:15Z</time>
      </trkpt>
      <trkpt lat="50.37806" lon="4.32803">
        <ele>190.1609757917</ele>
        <time>2021-04-29T13:35:19Z</time>
      </trkpt>
      <trkpt lat="50.37804" lon="4.3282">
        <ele>190.24276881749</ele>
        <time>2021-04-29T13:35:22Z</time>
      </trkpt>
      <trkpt lat="50.37803" lon="4.32855">
        <ele>190.35420010169</ele>
        <time>2021-04-29T13:35:25Z</time>
      </trkpt>
      <trkpt lat="50.37792" lon="4.3289">
        <ele>190.56464429619</ele>
        <time>2021-04-29T13:35:28Z</time>
      </trkpt>
      <trkpt lat="50.37784" lon="4.32921">
        <ele>190.81778103432</ele>
        <time>2021-04-29T13:35:32Z</time>
      </trkpt>
      <trkpt lat="50.37775" lon="4.32968">
        <ele>191.06767365526</ele>
        <time>2021-04-29T13:35:35Z</time>
      </trkpt>
      <trkpt lat="50.37773" lon="4.32991">
        <ele>191.32726465299</ele>
        <time>2021-04-29T13:35:38Z</time>
      </trkpt>
      <trkpt lat="50.37771" lon="4.33004">
        <ele>191.60607996248</ele>
        <time>2021-04-29T13:35:42Z</time>
      </trkpt>
      <trkpt lat="50.37756" lon="4.33049">
        <ele>191.89632512863</ele>
        <time>2021-04-29T13:35:45Z</time>
      </trkpt>
      <trkpt lat="50.37748" lon="4.33084">
        <ele>192.16465203401</ele>
        <time>2021-04-29T13:35:48Z</time>
      </trkpt>
      <trkpt lat="50.37738" lon="4.33116">
        <ele>192.39260067001</ele>
        <time>2021-04-29T13:35:52Z</time>
      </trkpt>
      <trkpt lat="50.37734" lon="4.33131">
        <ele>192.54322674553</ele>
        <time>2021-04-29T13:35:55Z</time>
      </trkpt>
      <trkpt lat="50.37735" lon="4.33135">
        <ele>192.577659877</ele>
        <time>2021-04-29T13:35:59Z</time>
      </trkpt>
      <trkpt lat="50.37736" lon="4.33133">
        <ele>192.48782528467</ele>
        <time>2021-04-29T13:36:02Z</time>
      </trkpt>
      <trkpt lat="50.37748" lon="4.33134">
        <ele>192.23250953659</ele>
        <time>2021-04-29T13:36:05Z</time>
      </trkpt>
      <trkpt lat="50.37796" lon="4.3315">
        <ele>191.7297427701</ele>
        <time>2021-04-29T13:36:09Z</time>
      </trkpt>
      <trkpt lat="50.37827" lon="4.33169">
        <ele>191.17140383968</ele>
        <time>2021-04-29T13:36:12Z</time>
      </trkpt>
      <trkpt lat="50.37841" lon="4.33173">
        <ele>190.39944008684</ele>
        <time>2021-04-29T13:36:16Z</time>
      </trkpt>
      <trkpt lat="50.37917" lon="4.33207">
        <ele>188.22709158756</ele>
        <time>2021-04-29T13:36:19Z</time>
      </trkpt>
      <trkpt lat="50.37943" lon="4.33215">
        <ele>186.75634522466</ele>
        <time>2021-04-29T13:36:22Z</time>
      </trkpt>
      <trkpt lat="50.37954" lon="4.33222">
        <ele>184.98898602622</ele>
        <time>2021-04-29T13:36:26Z</time>
      </trkpt>
      <trkpt lat="50.37992" lon="4.33227">
        <ele>182.80418444143</ele>
        <time>2021-04-29T13:36:29Z</time>
      </trkpt>
      <trkpt lat="50.38039" lon="4.3324">
        <ele>180.23458698356</ele>
        <time>2021-04-29T13:36:33Z</time>
      </trkpt>
      <trkpt lat="50.38063" lon="4.3325">
        <ele>177.52853026728</ele>
        <time>2021-04-29T13:36:36Z</time>
      </trkpt>
      <trkpt lat="50.38085" lon="4.33262">
        <ele>174.6174583143</ele>
        <time>2021-04-29T13:36:40Z</time>
      </trkpt>
      <trkpt lat="50.38189" lon="4.33295">
        <ele>170.92048925468</ele>
        <time>2021-04-29T13:36:43Z</time>
      </trkpt>
      <trkpt lat="50.38253" lon="4.33312">
        <ele>167.55238710172</ele>
        <time>2021-04-29T13:36:47Z</time>
      </trkpt>
      <trkpt lat="50.38276" lon="4.33322">
        <ele>164.42910519531</ele>
        <time>2021-04-29T13:36:50Z</time>
      </trkpt>
      <trkpt lat="50.38333" lon="4.33337">
        <ele>161.08715932982</ele>
        <time>2021-04-29T13:36:54Z</time>
      </trkpt>
      <trkpt lat="50.38356" lon="4.33351">
        <ele>157.96821881889</ele>
        <time>2021-04-29T13:36:58Z</time>
      </trkpt>
      <trkpt lat="50.38382" lon="4.33371">
        <ele>154.89902815942</ele>
        <time>2021-04-29T13:37:01Z</time>
      </trkpt>
      <trkpt lat="50.38404" lon="4.33386">
        <ele>151.94753808867</ele>
        <time>2021-04-29T13:37:05Z</time>
      </trkpt>
      <trkpt lat="50.38433" lon="4.33412">
        <ele>149.08091824504</ele>
        <time>2021-04-29T13:37:09Z</time>
      </trkpt>
      <trkpt lat="50.38448" lon="4.33422">
        <ele>146.53186237875</ele>
        <time>2021-04-29T13:37:12Z</time>
      </trkpt>
      <trkpt lat="50.38464" lon="4.33431">
        <ele>144.20285828683</ele>
        <time>2021-04-29T13:37:16Z</time>
      </trkpt>
      <trkpt lat="50.38504" lon="4.33445">
        <ele>142.02964611685</ele>
        <time>2021-04-29T13:37:20Z</time>
      </trkpt>
      <trkpt lat="50.38564" lon="4.33459">
        <ele>140.10101841407</ele>
        <time>2021-04-29T13:37:23Z</time>
      </trkpt>
      <trkpt lat="50.3859" lon="4.3346">
        <ele>138.64601567822</ele>
        <time>2021-04-29T13:37:27Z</time>
      </trkpt>
      <trkpt lat="50.38607" lon="4.33458">
        <ele>137.46668198316</ele>
        <time>2021-04-29T13:37:31Z</time>
      </trkpt>
      <trkpt lat="50.38652" lon="4.33462">
        <ele>136.55602706229</ele>
        <time>2021-04-29T13:37:34Z</time>
      </trkpt>
      <trkpt lat="50.38673" lon="4.33456">
        <ele>135.92580360558</ele>
        <time>2021-04-29T13:37:38Z</time>
      </trkpt>
      <trkpt lat="50.387" lon="4.3344">
        <ele>135.53617910332</ele>
        <time>2021-04-29T13:37:42Z</time>
      </trkpt>
      <trkpt lat="50.38716" lon="4.33428">
        <ele>135.36388368443</ele>
        <time>2021-04-29T13:37:46Z</time>
      </trkpt>
      <trkpt lat="50.38738" lon="4.33422">
        <ele>135.45319397066</ele>
        <time>2021-04-29T13:37:49Z</time>
      </trkpt>
      <trkpt lat="50.38752" lon="4.33415">
        <ele>135.67363616547</ele>
        <time>2021-04-29T13:37:53Z</time>
      </trkpt>
      <trkpt lat="50.38762" lon="4.33414">
        <ele>136.01257473512</ele>
        <time>2021-04-29T13:37:57Z</time>
      </trkpt>
      <trkpt lat="50.38766" lon="4.33421">
        <ele>136.45315287378</ele>
        <time>2021-04-29T13:38:01Z</time>
      </trkpt>
      <trkpt lat="50.38767" lon="4.33426">
        <ele>136.99238567279</ele>
        <time>2021-04-29T13:38:04Z</time>
      </trkpt>
      <trkpt lat="50.38764" lon="4.33467">
        <ele>137.60544962177</ele>
        <time>2021-04-29T13:38:08Z</time>
      </trkpt>
      <trkpt lat="50.38766" lon="4.33498">
        <ele>138.3571376949</ele>
        <time>2021-04-29T13:38:12Z</time>
      </trkpt>
      <trkpt lat="50.38769" lon="4.33506">
        <ele>139.19174379682</ele>
        <time>2021-04-29T13:38:16Z</time>
      </trkpt>
      <trkpt lat="50.38772" lon="4.33511">
        <ele>140.11618489868</ele>
        <time>2021-04-29T13:38:20Z</time>
      </trkpt>
      <trkpt lat="50.38777" lon="4.33513">
        <ele>141.11565811732</ele>
        <time>2021-04-29T13:38:23Z</time>
      </trkpt>
      <trkpt lat="50.38791" lon="4.33507">
        <ele>142.22193855265</ele>
        <time>2021-04-29T13:38:27Z</time>
      </trkpt>
      <trkpt lat="50.38809" lon="4.33504">
        <ele>143.39913659506</ele>
        <time>2021-04-29T13:38:31Z</time>
      </trkpt>
      <trkpt lat="50.38821" lon="4.33504">
        <ele>144.58574613122</ele>
        <time>2021-04-29T13:38:35Z</time>
      </trkpt>
      <trkpt lat="50.38845" lon="4.33508">
        <ele>145.85401440406</ele>
        <time>2021-04-29T13:38:39Z</time>
      </trkpt>
      <trkpt lat="50.38849" lon="4.33507">
        <ele>147.02754145654</ele>
        <time>2021-04-29T13:38:42Z</time>
      </trkpt>
      <trkpt lat="50.38877" lon="4.33489">
        <ele>148.34034314075</ele>
        <time>2021-04-29T13:38:46Z</time>
      </trkpt>
      <trkpt lat="50.38897" lon="4.33481">
        <ele>149.54711449866</ele>
        <time>2021-04-29T13:38:50Z</time>
      </trkpt>
      <trkpt lat="50.38936" lon="4.33461">
        <ele>150.77869324536</ele>
        <time>2021-04-29T13:38:54Z</time>
      </trkpt>
      <trkpt lat="50.3896" lon="4.33451">
        <ele>151.94162290607</ele>
        <time>2021-04-29T13:38:58Z</time>
      </trkpt>
      <trkpt lat="50.38982" lon="4.33435">
        <ele>153.08396859174</ele>
        <time>2021-04-29T13:39:02Z</time>
      </trkpt>
      <trkpt lat="50.38994" lon="4.33435">
        <ele>154.16242337205</ele>
        <time>2021-04-29T13:39:06Z</time>
      </trkpt>
      <trkpt lat="50.39002" lon="4.33439">
        <ele>155.19435624634</ele>
        <time>2021-04-29T13:39:09Z</time>
      </trkpt>
      <trkpt lat="50.39012" lon="4.33452">
        <ele>156.20847416884</ele>
        <time>2021-04-29T13:39:13Z</time>
      </trkpt>
      <trkpt lat="50.39027" lon="4.33475">
        <ele>157.20776212823</ele>
        <time>2021-04-29T13:39:17Z</time>
      </trkpt>
      <trkpt lat="50.39054" lon="4.33529">
        <ele>158.22388346259</ele>
        <time>2021-04-29T13:39:21Z</time>
      </trkpt>
      <trkpt lat="50.39072" lon="4.33558">
        <ele>159.12551357482</ele>
        <time>2021-04-29T13:39:25Z</time>
      </trkpt>
      <trkpt lat="50.3908" lon="4.33576">
        <ele>159.95044413473</ele>
        <time>2021-04-29T13:39:29Z</time>
      </trkpt>
      <trkpt lat="50.39088" lon="4.33587">
        <ele>160.7315748048</ele>
        <time>2021-04-29T13:39:33Z</time>
      </trkpt>
      <trkpt lat="50.39089" lon="4.33587">
        <ele>161.44483351142</ele>
        <time>2021-04-29T13:39:37Z</time>
      </trkpt>
      <trkpt lat="50.39123" lon="4.33533">
        <ele>162.35814730659</ele>
        <time>2021-04-29T13:39:41Z</time>
      </trkpt>
      <trkpt lat="50.39134" lon="4.33524">
        <ele>162.88347107744</ele>
        <time>2021-04-29T13:39:45Z</time>
      </trkpt>
      <trkpt lat="50.39149" lon="4.33514">
        <ele>163.25456618213</ele>
        <time>2021-04-29T13:39:49Z</time>
      </trkpt>
      <trkpt lat="50.39178" lon="4.33484">
        <ele>163.52234570797</ele>
        <time>2021-04-29T13:39:53Z</time>
      </trkpt>
      <trkpt lat="50.3919" lon="4.33476">
        <ele>163.69667956939</ele>
        <time>2021-04-29T13:39:57Z</time>
      </trkpt>
      <trkpt lat="50.39201" lon="4.33466">
        <ele>163.76546461357</ele>
        <time>2021-04-29T13:40:01Z</time>
      </trkpt>
      <trkpt lat="50.3922" lon="4.33457">
        <ele>163.71582348935</ele>
        <time>2021-04-29T13:40:05Z</time>
      </trkpt>
      <trkpt lat="50.39229" lon="4.33455">
        <ele>163.55064054185</ele>
        <time>2021-04-29T13:40:09Z</time>
      </trkpt>
      <trkpt lat="50.39233" lon="4.33451">
        <ele>163.33831245779</ele>
        <time>2021-04-29T13:40:13Z</time>
      </trkpt>
      <trkpt lat="50.39233" lon="4.33443">
        <ele>163.06564634412</ele>
        <time>2021-04-29T13:40:17Z</time>
      </trkpt>
      <trkpt lat="50.3923" lon="4.33429">
        <ele>162.72470203046</ele>
        <time>2021-04-29T13:40:21Z</time>
      </trkpt>
      <trkpt lat="50.39203" lon="4.33341">
        <ele>162.26679297399</ele>
        <time>2021-04-29T13:40:25Z</time>
      </trkpt>
      <trkpt lat="50.39197" lon="4.33317">
        <ele>161.75867614146</ele>
        <time>2021-04-29T13:40:29Z</time>
      </trkpt>
      <trkpt lat="50.39186" lon="4.33282">
        <ele>161.22255772871</ele>
        <time>2021-04-29T13:40:33Z</time>
      </trkpt>
      <trkpt lat="50.39169" lon="4.3322">
        <ele>160.76050074021</ele>
        <time>2021-04-29T13:40:37Z</time>
      </trkpt>
      <trkpt lat="50.39165" lon="4.33193">
        <ele>160.33377423266</ele>
        <time>2021-04-29T13:40:41Z</time>
      </trkpt>
      <trkpt lat="50.39156" lon="4.33156">
        <ele>160.00137658452</ele>
        <time>2021-04-29T13:40:45Z</time>
      </trkpt>
      <trkpt lat="50.3916" lon="4.33154">
        <ele>159.88288467537</ele>
        <time>2021-04-29T13:40:49Z</time>
      </trkpt>
      <trkpt lat="50.39166" lon="4.33181">
        <ele>159.98865537114</ele>
        <time>2021-04-29T13:40:53Z</time>
      </trkpt>
      <trkpt lat="50.39167" lon="4.33189">
        <ele>160.20053041806</ele>
        <time>2021-04-29T13:40:57Z</time>
      </trkpt>
      <trkpt lat="50.3921" lon="4.33363">
        <ele>160.8219342679</ele>
        <time>2021-04-29T13:41:01Z</time>
      </trkpt>
      <trkpt lat="50.39178" lon="4.33375">
        <ele>160.77796558639</ele>
        <time>2021-04-29T13:41:05Z</time>
      </trkpt>
    </trkseg>
  </trk>
</gpx>